Location: *
(44.8833°S, 169.1500°W)
Time: 07:16:24
(UTC+00:00)

Daily predictions for brighter satellites

Satellite Brightness Start Highest point End
(mag) Time Altitude Azimuth Time Altitude Azimuth Time Altitude Azimuth
Cosmos 2227 Rocket 4.2 12:55:21 24° SSE 12:55:21 24° SSE 12:57:32 10° SSE
Cosmos 2263 Rocket 4.2 13:17:44 21° E 13:17:44 21° E 13:21:03 10° SE
ADEOS Rocket 4.2 13:14:20 10° SSE 13:18:03 34° ESE 13:18:03 34° ESE
USA 215 4.2 13:15:05 10° SE 13:20:43 40° S 13:20:43 40° S
SL-16 R/B 3.5 13:27:12 10° SSE 13:32:56 42° E 13:32:56 42° E
ATLAS 2AS CENTAUR R/B 4.1 13:28:28 10° SSW 13:34:42 36° SE 13:41:19 10° ENE
CZ-2C R/B 4.4 14:09:49 19° SSW 14:09:49 19° SSW 14:11:13 10° SSW
Cosmos 1092 Rocket 4.1 14:09:08 64° NE 14:09:46 68° E 14:16:04 10° SSE
Lacrosse 5 rocket 3.7 14:16:39 17° SSE 14:16:39 17° SSE 14:17:49 10° SE
Cosmos 2297 Rocket 3.9 14:16:09 22° SSW 14:16:09 22° SSW 14:19:26 10° S
Cosmos 1867 4.0 14:19:03 55° S 14:19:03 55° S 14:23:27 10° SSE
SL-4 R/B 3.6 14:21:05 37° S 14:21:06 37° S 14:25:40 10° ESE
Cosmos 2251 Rocket 3.9 14:21:50 59° ENE 14:21:56 59° ENE 14:27:09 10° SSE
FENGYUN 3A 4.3 14:29:56 45° SSW 14:29:56 45° SSW 14:33:46 10° SSW
ALOS 3.7 14:37:36 28° SSW 14:37:36 28° SSW 14:39:51 10° SSW
Meteor 1-27 Rocket 4.4 14:30:56 10° S 14:36:27 52° ESE 14:41:57 10° NNE
Cosmos 2227 Rocket 3.8 14:37:09 22° SW 14:37:09 22° SW 14:40:53 10° S
Cosmos 2195 Rocket 4.3 14:39:13 65° NW 14:40:06 76° W 14:46:20 10° S
SL-24 DEB 4.4 14:40:26 60° NE 14:41:11 73° E 14:45:55 10° S
Cosmos 1743 Rocket 4.1 14:49:12 39° NNE 14:50:38 59° E 14:55:07 10° SSE
Cosmos 2228 Rocket 4.4 14:46:54 10° S 14:51:09 40° ESE 14:55:23 10° NNE
Cosmos 2227 4.1 14:50:21 58° NNW 14:51:33 85° WSW 14:57:21 10° SSE
Cosmos 2292 Rocket 4.1 14:50:26 45° N 14:52:08 85° E 14:58:45 10° S
Cosmos 1140 Rocket 4.3 14:51:32 22° NNE 14:54:40 49° ENE 14:59:46 10° SSE
Cosmos 1428 Rocket 4.4 14:53:07 50° NW 14:54:41 68° W 15:00:55 10° S
Cosmos 2026 Rocket 4.0 14:54:57 45° NW 14:56:56 68° W 15:03:22 10° S
Cosmos 1809 Rocket 4.4 14:54:38 36° NNW 14:57:24 82° W 15:03:42 10° S
Cosmos 614 Rocket 3.8 14:58:17 62° WNW 14:58:51 68° WSW 15:04:04 10° SSE
Cosmos 407 Rocket 4.1 14:56:24 24° N 14:59:32 58° ENE 15:04:51 10° SSE
Meteor 2-21 4.4 14:55:50 25° N 14:59:42 88° E 15:06:02 10° S
Cosmos 2263 Rocket 2.2 14:59:26 53° W 15:00:17 60° WSW 15:05:55 10° SSE
Lacrosse 5 4.1 15:06:59 12° N 15:06:59 12° N 15:07:26 10° N
ADEOS Rocket 3.7 15:00:13 10° S 15:05:00 31° WSW 15:05:00 31° WSW
MINOTAUR 4 R/B 4.0 15:04:08 10° SSE 15:07:41 83° S 15:07:41 83° S
Cosmos 1553 Rocket 3.9 15:01:45 10° S 15:07:58 88° W 15:14:04 10° N
Cosmos 1515 Rocket 4.1 15:03:56 10° SSW 15:07:20 42° SW 15:07:20 42° SW
Meteor 2-21 Rocket 4.5 15:08:35 10° N 15:14:45 88° E 15:21:05 10° S
CZ-4C R/B 4.2 15:11:07 10° SSE 15:15:30 54° E 15:19:41 10° N
SJ-6F 4.4 15:15:19 43° NNW 15:16:26 61° W 15:20:41 10° SSW
SL-16 R/B 3.2 15:10:58 10° S 15:16:37 37° WSW 15:18:02 33° W
YAOGAN 6 3.4 15:17:48 10° NNE 15:21:14 52° ESE 15:24:47 10° S
NOSS 3-4 (A) 4.2 15:15:49 10° SW 15:22:43 30° NW 15:27:09 10° N
NOSS 3-4 (C) 4.2 15:15:56 10° SW 15:22:31 31° WNW 15:27:18 10° N
DELTA 2 DEB (DPAF) 4.0 15:18:42 10° S 15:23:14 75° WSW 15:25:34 28° NNW
ATLAS 2AS CENTAUR R/B 2.7 15:19:09 10° SW 15:26:02 65° WNW 15:33:22 10° NNE
Cosmos 1943 3.4 15:21:13 10° SW 15:26:41 47° WNW 15:32:06 10° N
SL-24 R/B 3.6 15:25:23 10° SSE 15:29:14 86° WSW 15:31:22 24° NNW
Cosmos 1655 Rocket 4.1 15:25:24 10° N 15:31:43 80° E 15:38:11 10° S
Cosmos 1603 4.0 15:27:53 10° SW 15:33:14 42° WNW 15:38:28 10° N
SL-08 R/B 4.2 15:28:45 10° SSE 15:33:35 52° E 15:38:16 10° N
Meteor 1-25 Rocket 4.3 15:30:00 10° N 15:35:44 82° E 15:41:29 10° SSE
CZ-4B R/B 3.5 15:32:50 10° N 15:36:32 81° WNW 15:40:19 10° SSW
Cosmos 1707 Rocket 4.3 15:32:43 10° S 15:37:05 56° ESE 15:41:26 10° NNE
SJ-12 3.8 15:34:06 10° N 15:38:10 68° WNW 15:42:19 10° SSW
CBERS 1 LM4 rocket 4.4 15:34:10 10° N 15:39:11 60° WNW 15:44:06 10° SSW
H-2A R/B 2.6 15:36:45 10° N 15:40:37 81° W 15:44:29 10° SSW
Cosmos 1805 Rocket 3.6 15:42:16 12° NNW 15:46:24 61° W 15:50:54 10° S
Sich 1 3.0 15:42:01 10° NNW 15:46:27 77° W 15:50:54 10° S
Cosmos 2315 Rocket 4.4 15:40:17 10° S 15:46:38 69° E 15:52:56 10° NNE
CZ-4B R/B 4.1 15:43:10 10° NNE 15:47:34 51° ESE 15:51:56 10° S
Cosmos 1844 Rocket 2.9 15:42:31 10° NNW 15:48:06 76° ENE 15:53:46 10° SSE
Cosmos 1500 Rocket 4.3 15:46:34 26° WNW 15:48:12 34° WSW 15:52:18 10° S
Cosmos 1633 Rocket 3.9 15:45:09 10° N 15:49:27 53° E 15:53:48 10° SSE
RESURS DK-1 3.4 15:46:19 10° SSW 15:50:25 48° ESE 15:54:29 10° NE
ADEOS 3.5 15:46:04 10° N 15:51:19 75° WNW 15:56:38 10° SSW
Lacrosse 5 rocket 3.5 15:52:37 10° SW 15:54:34 14° S 15:56:31 10° SSE
Envisat 3.0 15:51:06 10° N 15:56:09 61° W 16:01:17 10° SSW
Milstar 3 4.3 15:54:14 12° NW 15:59:31 22° N 16:04:37 10° NE
Cosmos 2266 Rocket 3.9 15:54:03 10° NNW 16:00:06 70° W 16:06:19 10° S
SL-4 R/B 2.8 15:56:38 11° WSW 16:01:25 65° SSE 16:06:12 10° ENE
Cosmos 1607 3.9 15:57:37 10° NW 16:03:42 77° SW 16:09:53 10° SSE
Cosmos 1515 4.0 16:00:15 10° SSW 16:03:55 42° W 16:07:31 10° NNW
Cosmos 676 Rocket 4.0 16:00:15 10° NNW 16:05:32 88° WSW 16:10:57 10° SSE
Cosmos 1763 Rocket 4.2 16:00:14 10° SSW 16:05:32 60° ESE 16:10:49 10° NE
Meteor 1-18 Rocket 4.4 16:00:46 10° S 16:06:49 88° W 16:12:42 10° N
Meteor 1-31 Rocket 3.3 16:05:23 10° NNW 16:08:56 35° W 16:12:31 10° SSW
S3M 4.3 16:03:29 10° SSW 16:09:35 47° W 16:15:39 10° NNW
Meteor 1-20 Rocket 4.4 16:06:07 10° NNW 16:11:27 48° WSW 16:16:56 10° S
SJ-7 4.4 16:07:24 10° NNE 16:11:31 86° W 16:15:44 10° SSW
Okean 1 3.4 16:08:33 10° SSW 16:12:35 55° W 16:16:31 10° N
NOAA 11 4.2 16:11:38 10° NNE 16:17:06 87° WNW 16:22:39 10° SSW
USA 305 3.0 16:16:32 10° NW 16:20:53 86° NE 16:25:16 10° SE
MOS 1 Rocket 3.7 16:18:30 10° S 16:23:57 63° WSW 16:29:08 10° NNW
CZ-2C R/B 3.4 16:21:08 10° NNE 16:26:27 73° ESE 16:31:32 10° S
Cosmos 2228 Rocket 4.4 16:25:49 10° SW 16:29:03 20° W 16:32:16 10° NW
Meteor 1-5 Rocket 4.3 16:26:19 10° N 16:31:50 86° E 16:37:38 10° SSE
Cosmos 1844 3.8 16:27:31 10° NW 16:33:10 61° WSW 16:38:49 10° SSE
ISS -0.9 16:31:10 10° N 16:33:22 16° NE 16:35:34 10° E
USA 307 3.0 16:29:11 10° NW 16:33:31 87° SSW 16:37:53 10° SE
Cosmos 1954 Rocket 4.3 16:30:08 10° NW 16:35:16 49° WSW 16:40:30 10° SSE
Cosmos 1500 4.0 16:34:49 10° NW 16:38:19 32° WSW 16:41:52 10° S
Cosmos 1470 Rocket 3.5 16:34:47 10° NNW 16:39:09 79° W 16:43:35 10° S
Meteor PRIRODA 4.1 16:35:43 10° N 16:39:16 40° W 16:42:52 10° SSW
Cosmos 1933 Rocket 4.1 16:36:13 10° N 16:40:41 69° E 16:45:13 10° SSE
Cosmos 841 Rocket 4.4 16:36:00 10° SSW 16:41:10 56° ESE 16:46:18 10° NE
